LEMUR-2-YUASA (43560 NORAD) Tracking and Keplerian Element Data

This shows tracking and keplerian element data for the satellite.

Feedback or suggestion? Click here.




ElementValue
Catalog43560
NameLEMUR-2-YUASA
Epoch Orbit4286
Epoch Day112.85110715
Epoch Year2019
RAAN328.6622
Inclination51.6426
Eccentricity0.0007413
Argument of Perigee240.0358
Mean Anonmoly119.9886
Mean Motion15.2907083
Decay Rate1.831E-05
L11 43560U 18046G 19112.85110715 .00001831 00000-0 76423-4 0 9998
L22 43560 51.6426 328.6622 0007413 240.0358 119.9886 15.29070830 42867

Live tracking and technical data element details for LEMUR-2-YUASA (NORAD 43560). LEMUR-2-YUASA can be tracked NOW for your location showing map with azimuth and elevation plus other details from your city location.

Track the satellite on the map from your city or location and see movement details for azimuth, elevation, latitude, longitude, range, height, and movement on the map or in text.







IsCatalogInMostPopularTable: catalog: 43560, numindb: 118
Update: records affected: 1



GetName: 43560 LEMUR-2-YUASA

Hit Count: updated at: Tue, 23 Apr 2019 20:07:34 GMT